Darstellungsparameter: Aktuell verwendete Einstellungen:
Skalierung der Graphiken ... ?
xyx+y,   Skalierungsfaktor:      Skalierung: Modus: x, Faktor: 1
Darstellungszeitraum ... ?
Vom - - bis: - -   Zeitraum: 10.08.2019 - 09.08.2020
Min/Max/Avg-Anzeige ... ?
Zeige MMA aktuell
Zeige MMA Monat
Zeige MMA alles
Zeige --A aktuell
Zeige --A Monat
Zeige --A alles
Keine MMA-Anzeige
MMA:
Keine MMA-Graphiken
MMA-Basis: 10.08.2019 - 09.08.2020
Quicknavigation für Darstellung... ?
Tage:      1T, 2T, 3T, 5T -1T -2T -3T -5T +1T +2T +3T +5T
Wochen: 1W, 2W, 3W -1W -2W -3W +1W +2W +3W
Monate: 1M, 3M, 6M -1M -3M -6M +1M +3M +6M
Jahre:    1J, 3J, 5J, 10J -1J -3J -5J -10J +1J +3J +5J +10J
Nutze für die Darstellung ... ?
Originaldaten oder ...
Mittelwerte Minima Maxima auf...
Stundenbasis Tagesbasis Wochenbasis
Monatsbasis Jahresbasis      Datenbasis: Mittelwerte auf Tagesbasis
Darstellen als:
Statistik (Auto) Statistik J:M      Darstellung:
Zur Graphik,    zurück zur Übersicht aller Sensoren.
 
Tabellarische Datenbersicht: ?
 
Sensor: Nr:Datum:Temp:Feuchte:
Aussen-T/F 1 10-08-2019 00:00:00 20.72917 C 37.6833 %
2 11-08-2019 00:00:00 17.03333 C 35.9000 %
3 12-08-2019 00:00:00 16.51583 C 38.9833 %
4 13-08-2019 00:00:00 16.10833 C 35.2833 %
5 14-08-2019 00:00:00 16.6875 C 34.0417 %
6 15-08-2019 00:00:00 17.20583 C 40.0250 %
7 16-08-2019 00:00:00 17.84 C 34.2250 %
8 17-08-2019 00:00:00 17.89333 C 38.0750 %
9 18-08-2019 00:00:00 19.71833 C 44.5000 %
10 19-08-2019 00:00:00 18.45167 C 33.8417 %
11 20-08-2019 00:00:00 15.91167 C 33.3250 %
12 21-08-2019 00:00:00 16.52917 C 33.4750 %
13 22-08-2019 00:00:00 17.12333 C 32.3667 %
14 23-08-2019 00:00:00 18.31667 C 31.5083 %
15 24-08-2019 00:00:00 19.36333 C 30.9833 %
16 25-08-2019 00:00:00 21.54583 C 29.8917 %
17 26-08-2019 00:00:00 22.17 C 33.4833 %
18 27-08-2019 00:00:00 22.70333 C 35.1667 %
19 28-08-2019 00:00:00 23.4425 C 30.4583 %
20 29-08-2019 00:00:00 22.20333 C 28.3583 %
21 30-08-2019 00:00:00 21.07 C 29.2583 %
22 31-08-2019 00:00:00 21.975 C 30.7583 %
23 01-09-2019 00:00:00 18.8525 C 26.8333 %
24 02-09-2019 00:00:00 15.49333 C 28.2000 %
25 03-09-2019 00:00:00 15.72917 C 28.0833 %
Sensor: Nr:Datum:Temp:Feuchte:
Aussen-T/F 26 04-09-2019 00:00:00 16.9525 C 33.9667 %
27 05-09-2019 00:00:00 15.59 C 26.2917 %
28 06-09-2019 00:00:00 13.58917 C 31.1917 %
29 07-09-2019 00:00:00 12.6975 C 39.5000 %
30 08-09-2019 00:00:00 12.7439 C 48.5935 %
31 09-09-2019 00:00:00 15.23733 C 38.6667 %
32 10-09-2019 00:00:00 12.20486 C 22.8264 %
33 11-09-2019 00:00:00 13.35556 C 20.8472 %
34 12-09-2019 00:00:00 19.325 C 20.0000 %
35 13-09-2019 00:00:00 17.86806 C 20.1111 %
36 14-09-2019 00:00:00 15.93333 C 22.4375 %
37 15-09-2019 00:00:00 15.65694 C 21.2778 %
38 16-09-2019 00:00:00 16.21389 C 20.0000 %
39 17-09-2019 00:00:00 15.87708 C 20.0000 %
40 18-09-2019 00:00:00 11.47361 C 20.7917 %
41 19-09-2019 00:00:00 10.53333 C 21.8194 %
42 20-09-2019 00:00:00 10.80486 C 20.8472 %
43 21-09-2019 00:00:00 12.45278 C 20.6597 %
44 22-09-2019 00:00:00 14.78542 C 20.7500 %
45 23-09-2019 00:00:00 16.6875 C 22.1528 %
46 24-09-2019 00:00:00 13.94306 C 26.6319 %
47 25-09-2019 00:00:00 15.31806 C 25.0417 %
48 26-09-2019 00:00:00 16.10903 C 26.0000 %
49 27-09-2019 00:00:00 16.23333 C 23.7708 %
50 28-09-2019 00:00:00 15.40208 C 22.5833 %
Sensor: Nr:Datum:Temp:Feuchte:
Aussen-T/F 51 29-09-2019 00:00:00 16.05972 C 21.6597 %
52 30-09-2019 00:00:00 15.48194 C 21.1319 %
53 01-10-2019 00:00:00 15.84375 C 23.4931 %
54 02-10-2019 00:00:00 12.57569 C 23.6111 %
55 03-10-2019 00:00:00 9.35625 C 27.6944 %
56 04-10-2019 00:00:00 10.03681 C 31.8403 %
57 05-10-2019 00:00:00 10.32986 C 26.5903 %
58 06-10-2019 00:00:00 7.85764 C 34.1250 %
59 07-10-2019 00:00:00 9.80764 C 31.8819 %
60 08-10-2019 00:00:00 12.35833 C 31.0694 %
61 09-10-2019 00:00:00 11.56667 C 27.7431 %
62 10-10-2019 00:00:00 11.49097 C 26.2153 %
63 11-10-2019 00:00:00 12.41458 C 28.8194 %
64 12-10-2019 00:00:00 13.21111 C 29.6875 %
65 13-10-2019 00:00:00 16.35417 C 28.4722 %
66 14-10-2019 00:00:00 15.8125 C 27.6528 %
67 15-10-2019 00:00:00 13.94028 C 29.8611 %
68 16-10-2019 00:00:00 12.42153 C 29.2917 %
69 17-10-2019 00:00:00 14.32708 C 27.4167 %
70 18-10-2019 00:00:00 12.3125 C 29.7292 %
71 19-10-2019 00:00:00 12.78194 C 28.2083 %
72 20-10-2019 00:00:00 13.0875 C 34.7778 %
73 21-10-2019 00:00:00 13.30486 C 29.2014 %
74 22-10-2019 00:00:00 11.45 C 27.8819 %
75 23-10-2019 00:00:00 10.68403 C 31.1181 %
Sensor: Nr:Datum:Temp:Feuchte:
Aussen-T/F 76 24-10-2019 00:00:00 13.85208 C 27.9236 %
77 25-10-2019 00:00:00 13.1625 C 24.9444 %
78 26-10-2019 00:00:00 12.72639 C 27.5417 %
79 27-10-2019 00:00:00 9.68467 C 30.8733 %
80 28-10-2019 00:00:00 5.91597 C 35.2014 %
81 29-10-2019 00:00:00 6.21181 C 29.3264 %
82 30-10-2019 00:00:00 2.93333 C 34.5347 %
83 31-10-2019 00:00:00 1.41875 C 34.8333 %
84 01-11-2019 00:00:00 5.44792 C 36.7292 %
85 02-11-2019 00:00:00 12.8125 C 27.6458 %
86 03-11-2019 00:00:00 11.45069 C 29.7639 %
87 04-11-2019 00:00:00 9.88542 C 30.2153 %
88 05-11-2019 00:00:00 9.25069 C 27.4306 %
89 06-11-2019 00:00:00 8.33542 C 34.7014 %
90 07-11-2019 00:00:00 7.30278 C 33.8333 %
91 08-11-2019 00:00:00 4.29028 C 37.7153 %
92 09-11-2019 00:00:00 4.26806 C 33.1111 %
93 10-11-2019 00:00:00 2.51319 C 34.9861 %
94 11-11-2019 00:00:00 4.2 C 27.4792 %
95 12-11-2019 00:00:00 5.41667 C 25.4792 %
96 13-11-2019 00:00:00 4.93472 C 22.9861 %
97 14-11-2019 00:00:00 4.86042 C 26.9861 %
98 15-11-2019 00:00:00 4.08472 C 26.3333 %
99 16-11-2019 00:00:00 1.19444 C 38.8125 %
100 17-11-2019 00:00:00 2.39861 C 40.2708 %
Sensor: Nr:Datum:Temp:Feuchte:
Aussen-T/F 101 18-11-2019 00:00:00 3.51667 C 36.2847 %
102 19-11-2019 00:00:00 3.06736 C 36.5833 %
103 20-11-2019 00:00:00 0.75972 C 37.8403 %
104 21-11-2019 00:00:00 1.18951 C 39.3846 %
105 22-11-2019 00:00:00 3.65972 C 35.6806 %
106 23-11-2019 00:00:00 4.64653 C 33.3889 %
107 24-11-2019 00:00:00 1.99861 C 41.4722 %
108 25-11-2019 00:00:00 4.16319 C 39.3681 %
109 26-11-2019 00:00:00 7.75903 C 34.8472 %
110 27-11-2019 00:00:00 9.72083 C 30.6875 %
111 28-11-2019 00:00:00 10.55833 C 22.1319 %
112 29-11-2019 00:00:00 5.75486 C 30.7639 %
113 30-11-2019 00:00:00 0.48194 C 42.0972 %
114 01-12-2019 00:00:00 1.14236 C 33.0139 %
115 02-12-2019 00:00:00 1.20556 C 36.2986 %
116 03-12-2019 00:00:00 3.97431 C 39.2292 %
117 04-12-2019 00:00:00 0.41389 C 41.6111 %
118 05-12-2019 00:00:00 -2.03194 C 42.0972 %
119 06-12-2019 00:00:00 2.6125 C 34.4722 %
120 07-12-2019 00:00:00 8.20694 C 27.7292 %
121 08-12-2019 00:00:00 9.69931 C 24.2778 %
122 09-12-2019 00:00:00 7.09444 C 23.9722 %
123 10-12-2019 00:00:00 2.37361 C 34.0000 %
124 11-12-2019 00:00:00 3.12569 C 39.3056 %
125 12-12-2019 00:00:00 2.64931 C 37.2500 %
Sensor: Nr:Datum:Temp:Feuchte:
Aussen-T/F 126 13-12-2019 00:00:00 3.25278 C 34.0069 %
127 14-12-2019 00:00:00 6.22222 C 28.0625 %
128 15-12-2019 00:00:00 7.24792 C 30.8958 %
129 16-12-2019 00:00:00 7.47361 C 39.2986 %
130 17-12-2019 00:00:00 9.69514 C 31.9653 %
131 18-12-2019 00:00:00 6.95069 C 37.4792 %
132 19-12-2019 00:00:00 4.60972 C 40.5417 %
133 20-12-2019 00:00:00 6.87778 C 35.7847 %
134 21-12-2019 00:00:00 6.42778 C 32.4306 %
135 22-12-2019 00:00:00 7.57917 C 31.0556 %
136 23-12-2019 00:00:00 7.34861 C 28.6111 %
137 24-12-2019 00:00:00 7.20278 C 29.9097 %
138 25-12-2019 00:00:00 6.91944 C 32.8333 %
139 26-12-2019 00:00:00 4.25278 C 40.6250 %
140 27-12-2019 00:00:00 4.41181 C 36.8819 %
141 28-12-2019 00:00:00 -1.22431 C 42.5000 %
142 29-12-2019 00:00:00 -2.07708 C 39.8819 %
143 30-12-2019 00:00:00 -1.99931 C 39.1319 %
144 31-12-2019 00:00:00 -0.41736 C 39.5556 %
145 01-01-2020 00:00:00 -0.10764 C 41.3403 %
146 02-01-2020 00:00:00 0.98958 C 39.7014 %
147 03-01-2020 00:00:00 7.00972 C 33.4653 %
148 04-01-2020 00:00:00 4.78264 C 32.5903 %
149 05-01-2020 00:00:00 5.21806 C 35.8750 %
150 06-01-2020 00:00:00 2.11667 C 38.1667 %
Sensor: Nr:Datum:Temp:Feuchte:
Aussen-T/F 151 07-01-2020 00:00:00 4.43611 C 34.6944 %
152 08-01-2020 00:00:00 7.71389 C 34.4167 %
153 09-01-2020 00:00:00 10.33542 C 35.2292 %
154 10-01-2020 00:00:00 8.27917 C 30.8958 %
155 11-01-2020 00:00:00 3.61806 C 33.7639 %
156 12-01-2020 00:00:00 4.57083 C 30.3889 %
157 13-01-2020 00:00:00 5.88472 C 35.0903 %
158 14-01-2020 00:00:00 9.28264 C 24.1181 %
159 15-01-2020 00:00:00 10.27083 C 23.7500 %
160 16-01-2020 00:00:00 7.07569 C 40.1944 %
161 17-01-2020 00:00:00 5.27986 C 39.1944 %
162 18-01-2020 00:00:00 3.79028 C 32.6042 %
163 19-01-2020 00:00:00 3.01389 C 40.8194 %
164 20-01-2020 00:00:00 1.64861 C 39.3889 %
165 21-01-2020 00:00:00 -2.675 C 44.7986 %
166 22-01-2020 00:00:00 -1.95347 C 44.7153 %
167 23-01-2020 00:00:00 0.53819 C 43.6458 %
168 24-01-2020 00:00:00 0.81319 C 35.7222 %
169 25-01-2020 00:00:00 1.99236 C 39.2014 %
170 26-01-2020 00:00:00 2.13056 C 41.5625 %
171 27-01-2020 00:00:00 5.48542 C 39.8264 %
172 28-01-2020 00:00:00 5.07708 C 30.3750 %
173 29-01-2020 00:00:00 4.20764 C 29.8611 %
174 30-01-2020 00:00:00 7.57569 C 29.5694 %
175 31-01-2020 00:00:00 12.86181 C 27.9167 %
Sensor: Nr:Datum:Temp:Feuchte:
Aussen-T/F 176 01-02-2020 00:00:00 11.16597 C 32.0972 %
177 02-02-2020 00:00:00 9.925 C 31.1319 %
178 03-02-2020 00:00:00 10.19236 C 29.5139 %
179 04-02-2020 00:00:00 4.29514 C 36.4097 %
180 05-02-2020 00:00:00 3.05069 C 37.1458 %
181 06-02-2020 00:00:00 0.04514 C 42.7500 %
182 07-02-2020 00:00:00 -0.30764 C 42.8264 %
183 08-02-2020 00:00:00 1.01389 C 43.0069 %
184 09-02-2020 00:00:00 8.36458 C 32.5764 %
185 10-02-2020 00:00:00 7.85 C 31.3611 %
186 11-02-2020 00:00:00 5.29167 C 24.6597 %
187 12-02-2020 00:00:00 4.32083 C 30.5972 %
188 13-02-2020 00:00:00 3.32917 C 42.1250 %
189 14-02-2020 00:00:00 5.46458 C 39.2639 %
190 15-02-2020 00:00:00 5.89931 C 38.0278 %
191 16-02-2020 00:00:00 14.44931 C 23.2431 %
192 17-02-2020 00:00:00 8.25903 C 32.4167 %
193 18-02-2020 00:00:00 6.89097 C 31.0347 %
194 19-02-2020 00:00:00 5.73889 C 30.1875 %
195 20-02-2020 00:00:00 7.7125 C 32.9722 %
196 21-02-2020 00:00:00 4.71042 C 33.5972 %
197 22-02-2020 00:00:00 7.67986 C 30.0347 %
198 23-02-2020 00:00:00 10.01389 C 35.3403 %
199 24-02-2020 00:00:00 7.74653 C 36.3194 %
200 25-02-2020 00:00:00 8.81597 C 32.2778 %
Sensor: Nr:Datum:Temp:Feuchte:
Aussen-T/F 201 26-02-2020 00:00:00 4.37431 C 33.6806 %
202 27-02-2020 00:00:00 2.22153 C 41.6806 %
203 28-02-2020 00:00:00 3.52431 C 38.4514 %
204 29-02-2020 00:00:00 8.60556 C 34.8889 %
205 01-03-2020 00:00:00 7.15694 C 36.0000 %
206 02-03-2020 00:00:00 5.99375 C 40.1667 %
207 03-03-2020 00:00:00 4.26806 C 39.6458 %
208 04-03-2020 00:00:00 5.28958 C 37.5764 %
209 05-03-2020 00:00:00 5.45764 C 43.0833 %
210 06-03-2020 00:00:00 5.63958 C 40.4931 %
211 07-03-2020 00:00:00 6.26458 C 33.7569 %
212 08-03-2020 00:00:00 9.46458 C 32.2361 %
213 09-03-2020 00:00:00 7.81875 C 35.4514 %
214 10-03-2020 00:00:00 9.06181 C 39.4514 %
215 11-03-2020 00:00:00 14.0375 C 35.2639 %
216 12-03-2020 00:00:00 11.01597 C 30.3681 %
217 13-03-2020 00:00:00 6.99236 C 33.4236 %
218 14-03-2020 00:00:00 5.89028 C 38.1667 %
219 15-03-2020 00:00:00 9.14653 C 32.2153 %
220 16-03-2020 00:00:00 9.43264 C 35.6667 %
221 17-03-2020 00:00:00 12.02708 C 33.7847 %
222 18-03-2020 00:00:00 9.92639 C 36.2153 %
223 19-03-2020 00:00:00 12.58194 C 32.0417 %
224 20-03-2020 00:00:00 10.52657 C 36.2308 %
225 21-03-2020 00:00:00 5.89653 C 34.6597 %
Sensor: Nr:Datum:Temp:Feuchte:
Aussen-T/F 226 22-03-2020 00:00:00 4.30139 C 28.5278 %
227 23-03-2020 00:00:00 3.12292 C 27.0764 %
228 24-03-2020 00:00:00 2.82431 C 27.8403 %
229 25-03-2020 00:00:00 3.67014 C 25.0486 %
230 26-03-2020 00:00:00 5.25486 C 23.4931 %
231 27-03-2020 00:00:00 8.10139 C 29.8819 %
232 28-03-2020 00:00:00 9.69236 C 30.9306 %
233 29-03-2020 00:00:00 5.0942 C 30.1377 %
234 30-03-2020 00:00:00 2.89028 C 29.9167 %
235 31-03-2020 00:00:00 5.79792 C 30.1528 %
236 01-04-2020 00:00:00 4.16111 C 29.6944 %
237 02-04-2020 00:00:00 5.26806 C 31.1944 %
238 03-04-2020 00:00:00 7.93542 C 28.5069 %
239 04-04-2020 00:00:00 6.89375 C 31.8958 %
240 05-04-2020 00:00:00 9.74514 C 32.0625 %
241 06-04-2020 00:00:00 12.17708 C 29.7431 %
242 07-04-2020 00:00:00 14.2875 C 28.9028 %
243 08-04-2020 00:00:00 15.02153 C 31.1528 %
244 09-04-2020 00:00:00 15.89514 C 27.6458 %
245 10-04-2020 00:00:00 14.80972 C 29.8333 %
246 11-04-2020 00:00:00 14.775 C 25.4861 %
247 12-04-2020 00:00:00 15.71319 C 27.3056 %
248 13-04-2020 00:00:00 9.43542 C 29.6944 %
249 14-04-2020 00:00:00 6.54583 C 28.1042 %
250 15-04-2020 00:00:00 9.17222 C 30.8750 %
Sensor: Nr:Datum:Temp:Feuchte:
Aussen-T/F 251 16-04-2020 00:00:00 13.09792 C 29.6667 %
252 17-04-2020 00:00:00 15.68056 C 30.2500 %
253 18-04-2020 00:00:00 14.81597 C 32.5000 %
254 19-04-2020 00:00:00 13.35694 C 32.8889 %
255 20-04-2020 00:00:00 12.80069 C 22.9861 %
256 21-04-2020 00:00:00 13.68472 C 21.3889 %
257 22-04-2020 00:00:00 14.69375 C 23.2153 %
258 23-04-2020 00:00:00 14.90347 C 25.2917 %
259 24-04-2020 00:00:00 14.72361 C 27.0278 %
260 25-04-2020 00:00:00 13.03611 C 25.6597 %
261 26-04-2020 00:00:00 12.22917 C 31.0069 %
262 27-04-2020 00:00:00 13.17153 C 29.7431 %
263 28-04-2020 00:00:00 12.62153 C 36.5556 %
264 29-04-2020 00:00:00 14.57569 C 31.0903 %
265 30-04-2020 00:00:00 12.09722 C 36.4583 %
266 01-05-2020 00:00:00 10.66042 C 37.3542 %
267 02-05-2020 00:00:00 10.00764 C 36.3611 %
268 03-05-2020 00:00:00 10.75833 C 34.4653 %
269 04-05-2020 00:00:00 11.74722 C 36.3681 %
270 05-05-2020 00:00:00 11.26667 C 32.2083 %
271 06-05-2020 00:00:00 11.08403 C 30.6181 %
272 07-05-2020 00:00:00 13.50764 C 30.8056 %
273 08-05-2020 00:00:00 15.85208 C 29.3056 %
274 09-05-2020 00:00:00 16.28611 C 29.0139 %
275 10-05-2020 00:00:00 15.97153 C 36.6389 %
Sensor: Nr:Datum:Temp:Feuchte:
Aussen-T/F 276 11-05-2020 00:00:00 9.26875 C 32.4028 %
277 12-05-2020 00:00:00 8.55764 C 29.8264 %
278 13-05-2020 00:00:00 9.41528 C 30.4444 %
279 14-05-2020 00:00:00 9.74792 C 29.2917 %
280 15-05-2020 00:00:00 11.27986 C 28.5903 %
281 16-05-2020 00:00:00 11.95833 C 29.2986 %
282 17-05-2020 00:00:00 14.25556 C 28.0625 %
283 18-05-2020 00:00:00 16.81042 C 28.8681 %
284 19-05-2020 00:00:00 17.67986 C 29.2153 %
285 20-05-2020 00:00:00 18.90417 C 29.3611 %
286 21-05-2020 00:00:00 20.425 C 29.2361 %
287 22-05-2020 00:00:00 20.27222 C 29.9583 %
288 23-05-2020 00:00:00 13.65972 C 37.1111 %
289 24-05-2020 00:00:00 13.68056 C 31.3750 %
290 25-05-2020 00:00:00 16.41181 C 30.5625 %
291 26-05-2020 00:00:00 15.69306 C 31.7292 %
292 27-05-2020 00:00:00 18.09444 C 29.6597 %
293 28-05-2020 00:00:00 18.81736 C 24.7153 %
294 29-05-2020 00:00:00 16.43681 C 26.8056 %
295 30-05-2020 00:00:00 16.61667 C 24.5000 %
296 31-05-2020 00:00:00 16.21736 C 26.2153 %
297 01-06-2020 00:00:00 19.27153 C 26.8889 %
298 02-06-2020 00:00:00 21.30486 C 25.6250 %
299 03-06-2020 00:00:00 21.06597 C 25.1042 %
300 04-06-2020 00:00:00 14.39583 C 39.8403 %
Sensor: Nr:Datum:Temp:Feuchte:
Aussen-T/F 301 05-06-2020 00:00:00 11.4625 C 37.4306 %
302 06-06-2020 00:00:00 12.76111 C 34.0347 %
303 07-06-2020 00:00:00 13.84514 C 31.7083 %
304 08-06-2020 00:00:00 15.57014 C 31.2986 %
305 09-06-2020 00:00:00 14.49861 C 37.8333 %
306 10-06-2020 00:00:00 15.8625 C 35.7431 %
307 11-06-2020 00:00:00 15.99028 C 36.5486 %
308 12-06-2020 00:00:00 20.73403 C 31.5139 %
309 13-06-2020 00:00:00 21.73403 C 27.8889 %
310 14-06-2020 00:00:00 19.10208 C 32.2222 %
311 15-06-2020 00:00:00 19.14306 C 31.8264 %
312 16-06-2020 00:00:00 18.22986 C 36.8750 %
313 17-06-2020 00:00:00 18.10486 C 36.5347 %
314 18-06-2020 00:00:00 19.72569 C 31.4722 %
315 19-06-2020 00:00:00 17.11181 C 35.9028 %
316 20-06-2020 00:00:00 17.44514 C 34.6319 %
317 21-06-2020 00:00:00 20.65208 C 31.4097 %
318 22-06-2020 00:00:00 20.03958 C 29.0347 %
319 23-06-2020 00:00:00 21.27708 C 29.8472 %
320 24-06-2020 00:00:00 22.32569 C 27.2222 %
321 25-06-2020 00:00:00 22.52222 C 26.3264 %
322 26-06-2020 00:00:00 23.33542 C 29.4306 %
323 27-06-2020 00:00:00 23.59236 C 27.9236 %
324 28-06-2020 00:00:00 20.15625 C 29.1181 %
325 29-06-2020 00:00:00 18.91667 C 29.3750 %
Sensor: Nr:Datum:Temp:Feuchte:
Aussen-T/F 326 30-06-2020 00:00:00 17.63611 C 29.2500 %
327 01-07-2020 00:00:00 22.10764 C 27.2500 %
328 02-07-2020 00:00:00 19.35903 C 32.8611 %
329 03-07-2020 00:00:00 18.4375 C 30.9306 %
330 04-07-2020 00:00:00 19.56528 C 27.8056 %
331 05-07-2020 00:00:00 23.42222 C 26.5069 %
332 06-07-2020 00:00:00 16.97292 C 27.8264 %
333 07-07-2020 00:00:00 16.98611 C 30.0903 %
334 08-07-2020 00:00:00 15.99444 C 36.0486 %
335 09-07-2020 00:00:00 22.42361 C 30.2153 %
336 10-07-2020 00:00:00 18.77222 C 32.6042 %
337 11-07-2020 00:00:00 17.44167 C 29.9514 %
338 12-07-2020 00:00:00 18.36944 C 29.9792 %
339 13-07-2020 00:00:00 20.63333 C 27.9931 %
340 14-07-2020 00:00:00 19.57917 C 28.7153 %
341 15-07-2020 00:00:00 18.56806 C 29.6389 %
342 16-07-2020 00:00:00 16.03611 C 38.0625 %
343 17-07-2020 00:00:00 19.64375 C 32.7222 %
344 18-07-2020 00:00:00 20.24406 C 31.3636 %
345 19-07-2020 00:00:00 23.3625 C 27.6597 %
346 20-07-2020 00:00:00 20.29931 C 28.6111 %
347 21-07-2020 00:00:00 18.99375 C 27.2083 %
348 22-07-2020 00:00:00 18.52222 C 28.8542 %
349 23-07-2020 00:00:00 20.38472 C 26.9306 %
350 24-07-2020 00:00:00 21.93889 C 24.3333 %
Sensor: Nr:Datum:Temp:Feuchte:
Aussen-T/F 351 25-07-2020 00:00:00 21.73681 C 27.9583 %
352 26-07-2020 00:00:00 21.61944 C 29.2361 %
353 27-07-2020 00:00:00 22.74306 C 28.1181 %
354 28-07-2020 00:00:00 23.63681 C 22.2569 %
355 29-07-2020 00:00:00 20.21875 C 27.2083 %
356 30-07-2020 00:00:00 21.74306 C 27.3958 %
357 31-07-2020 00:00:00 25.38125 C 25.3056 %
358 01-08-2020 00:00:00 22.83611 C 31.0000 %
359 02-08-2020 00:00:00 22.3625 C 29.5694 %
360 03-08-2020 00:00:00 18.8125 C 30.2222 %
361 04-08-2020 00:00:00 20.01944 C 27.5139 %
362 05-08-2020 00:00:00 20.54444 C 28.1875 %
363 06-08-2020 00:00:00 22.82014 C 26.7500 %
364 07-08-2020 00:00:00 24.83819 C 26.9306 %
365 08-08-2020 00:00:00 27.23056 C 25.4722 %
366 09-08-2020 00:00:00 24.89722 C 26.9583 %
Sensor: Nr:Datum:Temp:Feuchte:
G-T/H 1 10-08-2019 00:00:00 20.38917 C 65.0917 %
2 11-08-2019 00:00:00 19.8725 C 64.3750 %
3 12-08-2019 00:00:00 19.0475 C 65.6000 %
4 13-08-2019 00:00:00 18.645 C 58.8417 %
5 14-08-2019 00:00:00 18.54583 C 57.0833 %
6 15-08-2019 00:00:00 18.91583 C 62.6250 %
7 16-08-2019 00:00:00 18.59917 C 65.5583 %
8 17-08-2019 00:00:00 18.78167 C 67.1583 %
9 18-08-2019 00:00:00 19.07417 C 68.7167 %
10 19-08-2019 00:00:00 19.70167 C 61.8833 %
11 20-08-2019 00:00:00 18.7775 C 58.6500 %
12 21-08-2019 00:00:00 18.37 C 62.6500 %
13 22-08-2019 00:00:00 18.7725 C 58.7167 %
14 23-08-2019 00:00:00 19.34333 C 56.0250 %
15 24-08-2019 00:00:00 19.1825 C 58.5917 %
16 25-08-2019 00:00:00 19.53 C 63.3500 %
17 26-08-2019 00:00:00 21.84417 C 64.5833 %
18 27-08-2019 00:00:00 21.31417 C 66.1667 %
19 28-08-2019 00:00:00 21.07 C 66.6583 %
20 29-08-2019 00:00:00 21.03417 C 66.8417 %
21 30-08-2019 00:00:00 20.6775 C 66.8917 %
22 31-08-2019 00:00:00 20.2775 C 66.5917 %
23 01-09-2019 00:00:00 20.59167 C 65.4167 %
24 02-09-2019 00:00:00 18.59583 C 51.3417 %
25 03-09-2019 00:00:00 16.5475 C 53.5583 %
Sensor: Nr:Datum:Temp:Feuchte:
G-T/H 26 04-09-2019 00:00:00 18.68667 C 56.9667 %
27 05-09-2019 00:00:00 18.34667 C 60.0000 %
28 06-09-2019 00:00:00 17.44333 C 56.1750 %
29 07-09-2019 00:00:00 17.36583 C 60.4417 %
30 08-09-2019 00:00:00 16.54309 C 65.9350 %
31 09-09-2019 00:00:00 16.06067 C 66.7333 %
32 10-09-2019 00:00:00 15.23333 C 63.6597 %
33 11-09-2019 00:00:00 15.74097 C 61.0833 %
34 12-09-2019 00:00:00 17.93194 C 67.6319 %
35 13-09-2019 00:00:00 18.68472 C 70.9653 %
36 14-09-2019 00:00:00 18.01181 C 65.5903 %
37 15-09-2019 00:00:00 17.60347 C 61.9722 %
38 16-09-2019 00:00:00 17.78264 C 60.7361 %
39 17-09-2019 00:00:00 17.67431 C 62.7083 %
40 18-09-2019 00:00:00 15.39444 C 57.2778 %
41 19-09-2019 00:00:00 14.12361 C 57.3125 %
42 20-09-2019 00:00:00 13.22639 C 59.3056 %
43 21-09-2019 00:00:00 15.10833 C 52.5278 %
44 22-09-2019 00:00:00 15.13194 C 59.2083 %
45 23-09-2019 00:00:00 16.27153 C 64.4028 %
46 24-09-2019 00:00:00 16.11528 C 66.2778 %
47 25-09-2019 00:00:00 16.20556 C 67.8681 %
48 26-09-2019 00:00:00 16.33542 C 69.4097 %
49 27-09-2019 00:00:00 16.76458 C 69.3611 %
50 28-09-2019 00:00:00 16.47083 C 68.9792 %
Sensor: Nr:Datum:Temp:Feuchte:
G-T/H 51 29-09-2019 00:00:00 16.41458 C 69.6528 %
52 30-09-2019 00:00:00 16.64236 C 66.7917 %
53 01-10-2019 00:00:00 16.54167 C 68.3542 %
54 02-10-2019 00:00:00 16.15694 C 67.3056 %
55 03-10-2019 00:00:00 14.67222 C 66.7361 %
56 04-10-2019 00:00:00 14.15556 C 70.1319 %
57 05-10-2019 00:00:00 14.31875 C 71.1667 %
58 06-10-2019 00:00:00 13.69306 C 70.7847 %
59 07-10-2019 00:00:00 13.58056 C 72.7153 %
60 08-10-2019 00:00:00 14.14097 C 74.1597 %
61 09-10-2019 00:00:00 14.23472 C 74.0486 %
62 10-10-2019 00:00:00 14.00139 C 74.0278 %
63 11-10-2019 00:00:00 13.98819 C 74.3333 %
64 12-10-2019 00:00:00 14.71181 C 71.7639 %
65 13-10-2019 00:00:00 15.13472 C 74.9097 %
66 14-10-2019 00:00:00 16.34722 C 74.3958 %
67 15-10-2019 00:00:00 15.98125 C 73.6597 %
68 16-10-2019 00:00:00 15.42708 C 73.2986 %
69 17-10-2019 00:00:00 15.28056 C 74.7292 %
70 18-10-2019 00:00:00 15.18681 C 74.6042 %
71 19-10-2019 00:00:00 14.72222 C 74.1944 %
72 20-10-2019 00:00:00 14.40278 C 81.1597 %
73 21-10-2019 00:00:00 14.60625 C 80.9028 %
74 22-10-2019 00:00:00 14.62153 C 77.5000 %
75 23-10-2019 00:00:00 14.00764 C 76.3542 %
Sensor: Nr:Datum:Temp:Feuchte:
G-T/H 76 24-10-2019 00:00:00 14.52986 C 78.0139 %
77 25-10-2019 00:00:00 15.10694 C 74.8681 %
78 26-10-2019 00:00:00 14.99028 C 74.2153 %
79 27-10-2019 00:00:00 14.43933 C 74.9333 %
80 28-10-2019 00:00:00 12.81389 C 71.1806 %
81 29-10-2019 00:00:00 12.35556 C 71.6389 %
82 30-10-2019 00:00:00 10.98611 C 65.8194 %
83 31-10-2019 00:00:00 9.49097 C 64.1736 %
84 01-11-2019 00:00:00 9.67014 C 69.2569 %
85 02-11-2019 00:00:00 12.01181 C 74.2222 %
86 03-11-2019 00:00:00 12.91806 C 75.4861 %
87 04-11-2019 00:00:00 12.97569 C 75.6250 %
88 05-11-2019 00:00:00 12.58194 C 75.9444 %
89 06-11-2019 00:00:00 12.33194 C 75.6528 %
90 07-11-2019 00:00:00 12.18403 C 75.3403 %
91 08-11-2019 00:00:00 11.13611 C 70.1181 %
92 09-11-2019 00:00:00 11.02014 C 69.0972 %
93 10-11-2019 00:00:00 9.95556 C 68.3056 %
94 11-11-2019 00:00:00 9.96458 C 71.2708 %
95 12-11-2019 00:00:00 10.11458 C 72.0972 %
96 13-11-2019 00:00:00 10.0125 C 72.4097 %
97 14-11-2019 00:00:00 9.73403 C 68.3958 %
98 15-11-2019 00:00:00 9.68819 C 69.4028 %
99 16-11-2019 00:00:00 9.6125 C 68.7083 %
100 17-11-2019 00:00:00 9.03819 C 69.9306 %
Sensor: Nr:Datum:Temp:Feuchte:
G-T/H 101 18-11-2019 00:00:00 9.47361 C 72.2500 %
102 19-11-2019 00:00:00 9.40903 C 72.0833 %
103 20-11-2019 00:00:00 8.93333 C 71.1181 %
104 21-11-2019 00:00:00 8.40559 C 70.8182 %
105 22-11-2019 00:00:00 8.70556 C 72.6736 %
106 23-11-2019 00:00:00 9.32569 C 73.0972 %
107 24-11-2019 00:00:00 9.08333 C 72.0764 %
108 25-11-2019 00:00:00 9.04375 C 73.5069 %
109 26-11-2019 00:00:00 9.85139 C 74.9375 %
110 27-11-2019 00:00:00 10.87847 C 75.9236 %
111 28-11-2019 00:00:00 11.51597 C 75.5069 %
112 29-11-2019 00:00:00 11.25208 C 72.3542 %
113 30-11-2019 00:00:00 9.66736 C 68.9097 %
114 01-12-2019 00:00:00 8.81806 C 70.1806 %
115 02-12-2019 00:00:00 8.35278 C 70.5417 %
116 03-12-2019 00:00:00 8.74514 C 73.3472 %
117 04-12-2019 00:00:00 8.79375 C 71.8403 %
118 05-12-2019 00:00:00 7.92014 C 69.1458 %
119 06-12-2019 00:00:00 7.57292 C 70.7014 %
120 07-12-2019 00:00:00 8.97014 C 74.4514 %
121 08-12-2019 00:00:00 10.25694 C 75.1667 %
122 09-12-2019 00:00:00 10.48403 C 74.1111 %
123 10-12-2019 00:00:00 9.34028 C 71.5903 %
124 11-12-2019 00:00:00 8.75694 C 73.1250 %
125 12-12-2019 00:00:00 8.81042 C 73.2500 %
Sensor: Nr:Datum:Temp:Feuchte:
G-T/H 126 13-12-2019 00:00:00 8.51944 C 72.1458 %
127 14-12-2019 00:00:00 8.92153 C 73.0764 %
128 15-12-2019 00:00:00 9.56736 C 74.6667 %
129 16-12-2019 00:00:00 9.90486 C 75.1389 %
130 17-12-2019 00:00:00 10.43333 C 75.4583 %
131 18-12-2019 00:00:00 10.925 C 75.4861 %
132 19-12-2019 00:00:00 9.76667 C 73.6667 %
133 20-12-2019 00:00:00 9.69375 C 75.0208 %
134 21-12-2019 00:00:00 10.06458 C 74.5833 %
135 22-12-2019 00:00:00 10.1375 C 75.1528 %
136 23-12-2019 00:00:00 10.30417 C 75.3681 %
137 24-12-2019 00:00:00 10.12639 C 74.9375 %
138 25-12-2019 00:00:00 10.24444 C 75.9653 %
139 26-12-2019 00:00:00 9.92708 C 75.2569 %
140 27-12-2019 00:00:00 9.69444 C 75.5833 %
141 28-12-2019 00:00:00 8.37639 C 70.3194 %
142 29-12-2019 00:00:00 7.21528 C 69.6875 %
143 30-12-2019 00:00:00 7.16944 C 69.0486 %
144 31-12-2019 00:00:00 6.93194 C 69.9722 %
145 01-01-2020 00:00:00 7.23125 C 70.8403 %
146 02-01-2020 00:00:00 7.28958 C 70.5417 %
147 03-01-2020 00:00:00 8.41389 C 73.4792 %
148 04-01-2020 00:00:00 9.12431 C 73.5833 %
149 05-01-2020 00:00:00 9.42917 C 73.5694 %
150 06-01-2020 00:00:00 9.33958 C 72.1181 %
Sensor: Nr:Datum:Temp:Feuchte:
G-T/H 151 07-01-2020 00:00:00 8.74583 C 72.1111 %
152 08-01-2020 00:00:00 9.18611 C 74.0347 %
153 09-01-2020 00:00:00 10.3875 C 76.5556 %
154 10-01-2020 00:00:00 11.02153 C 75.1389 %
155 11-01-2020 00:00:00 10.04097 C 73.2014 %
156 12-01-2020 00:00:00 9.14861 C 72.8958 %
157 13-01-2020 00:00:00 9.30833 C 74.5139 %
158 14-01-2020 00:00:00 9.78958 C 75.6597 %
159 15-01-2020 00:00:00 10.59028 C 75.5972 %
160 16-01-2020 00:00:00 10.82222 C 75.8264 %
161 17-01-2020 00:00:00 9.87847 C 74.9583 %
162 18-01-2020 00:00:00 9.38125 C 74.1597 %
163 19-01-2020 00:00:00 8.86667 C 74.2569 %
164 20-01-2020 00:00:00 8.75 C 73.1111 %
165 21-01-2020 00:00:00 7.77014 C 69.7847 %
166 22-01-2020 00:00:00 7.17083 C 69.5903 %
167 23-01-2020 00:00:00 7.63472 C 70.8611 %
168 24-01-2020 00:00:00 7.71319 C 70.9097 %
169 25-01-2020 00:00:00 7.96806 C 71.5139 %
170 26-01-2020 00:00:00 7.98611 C 72.6597 %
171 27-01-2020 00:00:00 8.21875 C 74.7500 %
172 28-01-2020 00:00:00 8.85833 C 75.1458 %
173 29-01-2020 00:00:00 8.44306 C 74.0000 %
174 30-01-2020 00:00:00 8.61389 C 74.8750 %
175 31-01-2020 00:00:00 10.32431 C 76.3958 %
Sensor: Nr:Datum:Temp:Feuchte:
G-T/H 176 01-02-2020 00:00:00 11.40556 C 76.3681 %
177 02-02-2020 00:00:00 11.15903 C 73.6736 %
178 03-02-2020 00:00:00 11.4875 C 75.0000 %
179 04-02-2020 00:00:00 10.54722 C 71.2847 %
180 05-02-2020 00:00:00 9.47153 C 71.9236 %
181 06-02-2020 00:00:00 8.34306 C 70.5208 %
182 07-02-2020 00:00:00 7.79097 C 69.9167 %
183 08-02-2020 00:00:00 7.33681 C 70.6528 %
184 09-02-2020 00:00:00 8.3 C 73.5694 %
185 10-02-2020 00:00:00 9.82708 C 73.9167 %
186 11-02-2020 00:00:00 9.18194 C 72.2431 %
187 12-02-2020 00:00:00 8.72083 C 72.8750 %
188 13-02-2020 00:00:00 8.20208 C 72.5208 %
189 14-02-2020 00:00:00 8.84653 C 74.7500 %
190 15-02-2020 00:00:00 8.93958 C 73.5903 %
191 16-02-2020 00:00:00 11.3125 C 68.1111 %
192 17-02-2020 00:00:00 11.77708 C 69.2778 %
193 18-02-2020 00:00:00 10.43056 C 67.4028 %
194 19-02-2020 00:00:00 9.94514 C 69.4583 %
195 20-02-2020 00:00:00 9.73472 C 71.6875 %
196 21-02-2020 00:00:00 9.56875 C 71.4931 %
197 22-02-2020 00:00:00 9.25625 C 72.0625 %
198 23-02-2020 00:00:00 10.38403 C 73.7708 %
199 24-02-2020 00:00:00 10.40903 C 71.9792 %
200 25-02-2020 00:00:00 10.88819 C 73.0278 %
Sensor: Nr:Datum:Temp:Feuchte:
G-T/H 201 26-02-2020 00:00:00 10.02917 C 68.9306 %
202 27-02-2020 00:00:00 9.17986 C 71.0208 %
203 28-02-2020 00:00:00 8.31042 C 73.7708 %
204 29-02-2020 00:00:00 9.28125 C 75.1597 %
205 01-03-2020 00:00:00 9.80486 C 74.3403 %
206 02-03-2020 00:00:00 9.67847 C 73.5833 %
207 03-03-2020 00:00:00 9.53681 C 73.3194 %
208 04-03-2020 00:00:00 8.95833 C 73.5139 %
209 05-03-2020 00:00:00 9.15833 C 73.9861 %
210 06-03-2020 00:00:00 9.48958 C 74.9514 %
211 07-03-2020 00:00:00 9.38611 C 74.0556 %
212 08-03-2020 00:00:00 9.99583 C 74.7292 %
213 09-03-2020 00:00:00 10.54861 C 73.8819 %
214 10-03-2020 00:00:00 10.28056 C 73.3819 %
215 11-03-2020 00:00:00 11.72083 C 75.8889 %
216 12-03-2020 00:00:00 12.29653 C 71.3333 %
217 13-03-2020 00:00:00 11.08333 C 68.2014 %
218 14-03-2020 00:00:00 10.32361 C 70.1250 %
219 15-03-2020 00:00:00 10.87153 C 65.1667 %
220 16-03-2020 00:00:00 10.71667 C 66.3819 %
221 17-03-2020 00:00:00 11.47153 C 70.7292 %
222 18-03-2020 00:00:00 11.42569 C 70.3472 %
223 19-03-2020 00:00:00 12.36736 C 67.4583 %
224 20-03-2020 00:00:00 12.53217 C 67.5944 %
225 21-03-2020 00:00:00 11.55903 C 63.9097 %
Sensor: Nr:Datum:Temp:Feuchte:
G-T/H 226 22-03-2020 00:00:00 9.66111 C 61.2292 %
227 23-03-2020 00:00:00 8.67431 C 62.8819 %
228 24-03-2020 00:00:00 8.04028 C 63.8611 %
229 25-03-2020 00:00:00 7.80833 C 63.4722 %
230 26-03-2020 00:00:00 8.04028 C 64.0208 %
231 27-03-2020 00:00:00 9.19722 C 61.4583 %
232 28-03-2020 00:00:00 10.48264 C 59.6944 %
233 29-03-2020 00:00:00 10.14855 C 60.5362 %
234 30-03-2020 00:00:00 8.62708 C 59.5417 %
235 31-03-2020 00:00:00 8.58472 C 62.8194 %
236 01-04-2020 00:00:00 8.20764 C 62.6181 %
237 02-04-2020 00:00:00 8.18194 C 64.4097 %
238 03-04-2020 00:00:00 9.17708 C 61.3125 %
239 04-04-2020 00:00:00 7.05486 C 55.4306 %
240 05-04-2020 00:00:00 9.21944 C 61.8056 %
241 06-04-2020 00:00:00 10.2125 C 63.7569 %
242 07-04-2020 00:00:00 13.11319 C 59.7083 %
243 08-04-2020 00:00:00 13.17153 C 61.2847 %
244 09-04-2020 00:00:00 13.65556 C 60.0069 %
245 10-04-2020 00:00:00 13.73681 C 60.7847 %
246 11-04-2020 00:00:00 13.3125 C 61.3611 %
247 12-04-2020 00:00:00 13.45 C 63.2500 %
248 13-04-2020 00:00:00 13.15556 C 59.7986 %
249 14-04-2020 00:00:00 11.44375 C 58.7847 %
250 15-04-2020 00:00:00 11.16875 C 56.8333 %
Sensor: Nr:Datum:Temp:Feuchte:
G-T/H 251 16-04-2020 00:00:00 11.42917 C 52.3542 %
252 17-04-2020 00:00:00 14.90625 C 55.3958 %
253 18-04-2020 00:00:00 14.63333 C 62.5347 %
254 19-04-2020 00:00:00 14.45833 C 64.6250 %
255 20-04-2020 00:00:00 13.53681 C 59.6042 %
256 21-04-2020 00:00:00 13.28819 C 58.7986 %
257 22-04-2020 00:00:00 13.43958 C 59.4167 %
258 23-04-2020 00:00:00 13.68125 C 59.6181 %
259 24-04-2020 00:00:00 14.95139 C 52.1875 %
260 25-04-2020 00:00:00 14.65694 C 48.8681 %
261 26-04-2020 00:00:00 11.22569 C 54.7014 %
262 27-04-2020 00:00:00 13.14028 C 57.4375 %
263 28-04-2020 00:00:00 13.66528 C 62.0139 %
264 29-04-2020 00:00:00 13.85625 C 64.5486 %
265 30-04-2020 00:00:00 14.0875 C 65.0556 %
266 01-05-2020 00:00:00 13.42361 C 65.1111 %
267 02-05-2020 00:00:00 12.90972 C 65.8542 %
268 03-05-2020 00:00:00 12.50278 C 65.6389 %
269 04-05-2020 00:00:00 13.3096 C 66.6560 %

Maximal/Minimal-Werte vom 10.08.2019 - 09.08.2020

Sensor Min Max Avg
Temp
(Aussen-T/F)
-5 °C
29-12-2019  07:23:17
44.3 °C
08-08-2020  16:51:17
11.53 °C
Feuchte
(Aussen-T/F)
20 %
10-08-2019  12:31:18
64 %
10-08-2019  05:43:17
31.61 %
Temp
(G-T/H)
4.2 °C
04-04-2020  07:31:18
25.7 °C
26-08-2019  15:08:17
12.02 °C
Feuchte
(G-T/H)
33 %
21-09-2019  16:35:17
83 %
20-10-2019  15:57:17
68.93 %

Die Daten stammen von einer Davis Vantage Pro 2 Wetter-Station und werden unter Linux mit der Software wview2wettercgi und aufbereitet. Alle Angaben erfolgen ohne Gewähr für ihre Vollständigkeit oder Richtigkeit.
Kontakt: Rainer Krienke krienke@uni-koblenz.de . Meine Webseiten an der Uni Koblenz oder privat.
Version: $Revision: 0.78 $